Location: Batang Balui
(2.7000°N, 113.7833°E)
Time: 23:35:09
(UTC+00:00)

GPS 2-12 Rocket1 - Pass Details

Date: 03 December 2021
Orbit: 585 x 651 km, 20.0° (Epoch: 27 January)

Event Time Altitude Azimuth Distance (km) Brightness Sun altitude
Rises 11:15:47 0° 266° (W) 2,816 7.9 -15.1°
Reaches altitude 10° 11:18:17 10° 276° (W) 1,906 6.5 -15.7°
Maximum altitude 11:22:19 34° 341° (NNW) 971 4.0 -16.7°
Enters shadow 11:24:06 24° 25° (NNE) 1,212 4.1 -17.1°
